Chickamauga Lake Weather Center

Moon Phase Calendar



Chickamauga Lake Water Level
Online Cameras

 


      

Current Conditions in Sale Creek
9/25/2022 7:35:02 AM

62°F
Feels Like 62
Clear
Humidity
97%
Pressure
29.5"
Wind
0
Dew Point
61°F
UV Index
0/10 (Low)
Visibility
6 mi

Hourly Forecast

Date & Time Sun, Sep 25
7:00 AM
Sun, Sep 25
8:00 AM
Sun, Sep 25
9:00 AM
Sun, Sep 25
10:00 AM
Sun, Sep 25
11:00 AM
Sun, Sep 25
12:00 PM
Sun, Sep 25
1:00 PM
Sun, Sep 25
2:00 PM
Sun, Sep 25
3:00 PM
Sun, Sep 25
4:00 PM
Sun, Sep 25
5:00 PM
Sun, Sep 25
6:00 PM
Sun, Sep 25
7:00 PM
Sun, Sep 25
8:00 PM
Sun, Sep 25
9:00 PM
Sun, Sep 25
10:00 PM
Sun, Sep 25
11:00 PM
Mon, Sep 26
12:00 AM
Mon, Sep 26
1:00 AM
Mon, Sep 26
2:00 AM
Mon, Sep 26
3:00 AM
Mon, Sep 26
4:00 AM
Mon, Sep 26
5:00 AM
Mon, Sep 26
6:00 AM
Mon, Sep 26
7:00 AM
Mon, Sep 26
8:00 AM
Mon, Sep 26
9:00 AM
Mon, Sep 26
10:00 AM
Mon, Sep 26
11:00 AM
Mon, Sep 26
12:00 PM
Mon, Sep 26
1:00 PM
Mon, Sep 26
2:00 PM
Mon, Sep 26
3:00 PM
Mon, Sep 26
4:00 PM
Mon, Sep 26
5:00 PM
Mon, Sep 26
6:00 PM
Mon, Sep 26
7:00 PM
Mon, Sep 26
8:00 PM
Mon, Sep 26
9:00 PM
Mon, Sep 26
10:00 PM
Mon, Sep 26
11:00 PM
Tue, Sep 27
12:00 AM
Tue, Sep 27
1:00 AM
Tue, Sep 27
2:00 AM
Tue, Sep 27
3:00 AM
Tue, Sep 27
4:00 AM
Tue, Sep 27
5:00 AM
Tue, Sep 27
6:00 AM
Condition
Rain

Clear

Clear

Rain

Rain

Clouds

Clouds

Rain

Rain

Rain

Rain

Rain

Clouds

Rain

Clear

Clear

Clear

Clear

Clear

Clear

Clear

Clear

Clear

Clear

Clear

Clear

Clear

Clear

Clear

Clear

Clear

Clear

Clear

Clear

Clear

Clear

Clear

Clear

Clear

Clear

Clear

Clear

Clear

Clear

Clear

Clear

Clear

Clear
Temperature 62°F62°F62°F64°F67°F73°F79°F81°F80°F79°F76°F76°F73°F68°F66°F65°F63°F61°F59°F58°F57°F56°F55°F54°F54°F55°F60°F66°F72°F75°F77°F77°F77°F76°F75°F72°F66°F60°F57°F56°F54°F53°F52°F50°F50°F49°F48°F48°F
Feels Like 62°F62°F62°F64°F67°F73°F79°F83°F82°F79°F77°F77°F74°F69°F67°F65°F63°F61°F59°F57°F56°F55°F54°F54°F53°F53°F59°F65°F71°F73°F75°F76°F76°F75°F74°F71°F64°F58°F55°F54°F52°F51°F49°F48°F50°F49°F48°F48°F
Cloudiness 20%0%10%14%21%25%40%43%95%94%75%56%45%37%0%0%0%0%0%0%0%1%1%1%2%2%0%0%0%0%0%0%0%0%0%0%0%0%0%0%0%0%0%0%0%0%0%0%
Visibility 6 mi6 mi6 mi6 mi6 mi6 mi6 mi6 mi6 mi6 mi6 mi6 mi6 mi6 mi6 mi6 mi6 mi6 mi6 mi6 mi6 mi6 mi6 mi6 mi6 mi6 mi6 mi6 mi6 mi6 mi6 mi6 mi6 mi6 mi6 mi6 mi6 mi6 mi6 mi6 mi6 mi6 mi6 mi6 mi6 mi6 mi6 mi6 mi
Precipitation 36%58%74%100%100%78%80%100%33%82%91%90%72%86%32%28%24%24%24%24%0%0%0%0%0%0%0%0%0%0%0%0%0%0%0%0%0%0%0%0%0%0%0%0%0%0%0%0%
Humidity 96%97%96%95%89%72%58%56%61%67%79%81%85%90%92%92%90%89%87%86%85%85%84%83%82%81%74%60%45%33%29%28%29%31%34%40%52%56%56%55%57%58%59%61%62%62%63%63%
Dew Point 60°F61°F61°F62°F63°F63°F63°F64°F65°F67°F69°F69°F67°F65°F63°F62°F60°F57°F55°F53°F52°F51°F50°F49°F48°F48°F51°F51°F48°F44°F41°F41°F42°F43°F44°F46°F47°F44°F42°F40°F39°F38°F38°F37°F36°F36°F35°F35°F
Pressure 29.59"29.5"29.59"29.68"29.77"29.83"29.88"29.85"29.85"29.83"29.83"29.83"29.83"29.85"29.85"29.88"29.91"29.91"29.91"29.91"29.94"29.91"29.94"29.94"29.94"29.97"29.97"29.97"29.97"29.97"29.94"29.94"29.91"29.91"29.91"29.94"29.94"29.97"30"30.03"30.03"30.06"30.06"30.06"30.06"30.06"30.06"30.09"
Wind Speed 5.2 mph4.2 mph5.3 mph6.8 mph8.5 mph10.2 mph9.7 mph9.4 mph9.7 mph10.6 mph8.8 mph6.7 mph5.1 mph3.9 mph3.6 mph3.1 mph3.3 mph3.1 mph3.1 mph2.5 mph2.6 mph2.1 mph2 mph1.7 mph1.9 mph2.2 mph2.1 mph2.4 mph4.3 mph7.2 mph8.5 mph9.8 mph11.2 mph11.5 mph10.4 mph8.5 mph5.2 mph4.3 mph3.5 mph3.7 mph3.5 mph3.3 mph3.1 mph3.1 mph2.7 mph2.6 mph2.6 mph2.6 mph
Wind
Direction
194°
SSW
227°
SW
209°
SSW
210°
SSW
204°
SSW
212°
SSW
226°
SW
243°
WSW
257°
WSW
269°
W
274°
W
274°
W
299°
WNW
314°
NW
331°
NNW
327°
NNW
334°
NNW
332°
NNW
333°
NNW
329°
NNW
328°
NNW
311°
NW
311°
NW
283°
WNW
279°
W
278°
W
269°
W
265°
W
274°
W
294°
WNW
300°
WNW
303°
WNW
302°
WNW
302°
WNW
305°
NW
315°
NW
326°
NW
333°
NNW
322°
NW
320°
NW
319°
NW
313°
NW
324°
NW
324°
NW
322°
NW
323°
NW
323°
NW
333°
NNW

Daily Forecast

Date High Low Precip. Humidity
Today
Sep 25

Rain
81 °F
62 °F
100%
58%
Monday
Sep 26

Clear
77 °F
54 °F
24%
29%
Tuesday
Sep 27

Clear
72 °F
47 °F
0%
24%
Wednesday
Sep 28

Clouds
73 °F
49 °F
0%
31%
Thursday
Sep 29

Clouds
68 °F
49 °F
0%
34%
Friday
Sep 30

Rain
57 °F
51 °F
100%
95%
Saturday
Oct 1

Rain
61 °F
57 °F
100%
99%
Sunday
Oct 2

Clouds
71 °F
59 °F
2%
73%
Monday
Oct 3

Clear
83 °F
59 °F
0%
46%
Tuesday
Oct 4

Clouds
70 °F
52 °F
0%
54%
Wednesday
Oct 5

Clear
69 °F
47 °F
0%
48%
Thursday
Oct 6

Clear
72 °F
48 °F
0%
41%
Friday
Oct 7

Clear
76 °F
50 °F
0%
41%
Saturday
Oct 8

Clouds
78 °F
56 °F
0%
43%
Sunday
Oct 9

Clear
72 °F
49 °F
0%
27%
Monday
Oct 10

Clouds
77 °F
49 °F
0%
43%

Temperature 8-14 Day Outlook



Precipitation 8-14 Day Outlook




Quick Links
Chickamauga Lake News
Chickamauga Lake Photos
Chickamauga Lake Videos




About Us
Contact Us
Site Map
Search Site
Advertise With Us
   
www.ChickamaugaLake.info
THE CHICKAMAUGA LAKE WEBSITE

Copyright 2022, Lakes Online
Privacy    |    Legal